SWA2848 KLAX-PHNL

Flight info

Callsign SWA2848
Flight time 5h 20m
Altitude 34000
Route SUMMR2 DINTY DUETS R576 DADIE/N0456F360 R576 DENNS MAGGI3
Aircraft B38M/M-SDE1FGHILORVWXY/HB1

Departure

Time 2026-05-06 22:28
Airport Los Angeles International Airport (KLAX)

Arrival

Time 2026-05-07 03:48
Airport Daniel K. Inouye International Airport (PHNL)
Time Latitude Longitude Altitude Speed Heading
2026-05-06 21:18 33.94759 -118.40199 117 ft 0 kts 112°
2026-05-06 22:17 33.94762 -118.40208 116 ft 2 kts 111°
2026-05-06 22:17 33.94767 -118.40224 116 ft 2 kts 111°
2026-05-06 22:17 33.94771 -118.40236 116 ft 1 kts 112°
2026-05-06 22:17 33.94772 -118.40254 116 ft 2 kts 62°
2026-05-06 22:18 33.94760 -118.40267 116 ft 2 kts 15°
2026-05-06 22:18 33.94752 -118.40269 116 ft 1 kts 352°
2026-05-06 22:18 33.94745 -118.40267 116 ft 0 kts 353°
2026-05-06 22:23 33.94746 -118.40267 116 ft 0 kts 353°
2026-05-06 22:23 33.94777 -118.40272 116 ft 4 kts 353°
2026-05-06 22:23 33.94808 -118.40279 116 ft 4 kts 343°
2026-05-06 22:24 33.94830 -118.40288 116 ft 2 kts 338°
2026-05-06 22:24 33.94856 -118.40299 116 ft 6 kts 353°
2026-05-06 22:24 33.94889 -118.40279 116 ft 4 kts 58°
2026-05-06 22:24 33.94899 -118.40247 116 ft 3 kts 77°
2026-05-06 22:25 33.94903 -118.40225 116 ft 2 kts 77°
2026-05-06 22:25 33.94905 -118.40213 116 ft 0 kts 77°
2026-05-06 22:25 33.94908 -118.40191 116 ft 6 kts 84°
2026-05-06 22:25 33.94915 -118.40113 115 ft 10 kts 83°
2026-05-06 22:26 33.94924 -118.40024 113 ft 10 kts 82°
2026-05-06 22:26 33.94946 -118.39942 113 ft 9 kts 52°
2026-05-06 22:26 33.95009 -118.39925 111 ft 9 kts 339°
2026-05-06 22:26 33.95041 -118.39974 112 ft 6 kts 268°
2026-05-06 22:27 33.95039 -118.39992 113 ft 0 kts 262°
2026-05-06 22:27 33.95035 -118.40030 113 ft 25 kts 262°
2026-05-06 22:27 33.94983 -118.40540 120 ft 94 kts 263°
2026-05-06 22:27 33.94875 -118.41597 122 ft 153 kts 263°
2026-05-06 22:28 33.94720 -118.43105 287 ft 188 kts 263°
2026-05-06 22:28 33.94553 -118.44665 960 ft 193 kts 263°
2026-05-06 22:28 33.94380 -118.46330 1522 ft 206 kts 265°
2026-05-06 22:28 33.94289 -118.48060 2094 ft 211 kts 269°
2026-05-06 22:29 33.94249 -118.49879 2474 ft 224 kts 270°
2026-05-06 22:29 33.94173 -118.51794 2842 ft 236 kts 267°
2026-05-06 22:29 33.94024 -118.53819 3176 ft 250 kts 266°
2026-05-06 22:29 33.93845 -118.55935 3696 ft 256 kts 266°
2026-05-06 22:30 33.93670 -118.58029 4480 ft 253 kts 266°
2026-05-06 22:30 33.93499 -118.60164 5096 ft 260 kts 267°
2026-05-06 22:30 33.93328 -118.62367 5612 ft 270 kts 267°
2026-05-06 22:30 33.93151 -118.64645 6119 ft 275 kts 267°
2026-05-06 22:31 33.92973 -118.66917 6620 ft 277 kts 267°
2026-05-06 22:31 33.92792 -118.69251 7118 ft 282 kts 266°
2026-05-06 22:31 33.92610 -118.71600 7612 ft 288 kts 267°
2026-05-06 22:31 33.92422 -118.74013 8074 ft 292 kts 267°
2026-05-06 22:32 33.92229 -118.76487 8571 ft 295 kts 267°
2026-05-06 22:32 33.92035 -118.78951 9069 ft 301 kts 267°
2026-05-06 22:32 33.91837 -118.81479 9516 ft 307 kts 267°
2026-05-06 22:32 33.91708 -118.84047 9878 ft 306 kts 272°
2026-05-06 22:33 33.91726 -118.86591 10294 ft 308 kts 275°
2026-05-06 22:33 33.91819 -118.89212 10630 ft 318 kts 276°
2026-05-06 22:33 33.91933 -118.91913 10846 ft 334 kts 276°
2026-05-06 22:33 33.92045 -118.94784 11108 ft 349 kts 275°
2026-05-06 22:34 33.92144 -118.97737 11383 ft 364 kts 275°
2026-05-06 22:34 33.92353 -119.00826 11630 ft 376 kts 282°
2026-05-06 22:34 33.93126 -119.03860 11874 ft 381 kts 300°
2026-05-06 22:34 33.94426 -119.06650 12140 ft 383 kts 306°
2026-05-06 22:35 33.95867 -119.09307 12428 ft 383 kts 307°
2026-05-06 22:35 33.97353 -119.11958 12678 ft 384 kts 308°
2026-05-06 22:35 33.98853 -119.14658 12921 ft 385 kts 307°
2026-05-06 22:35 34.00344 -119.17306 13182 ft 384 kts 311°
2026-05-06 22:36 34.02124 -119.19718 13446 ft 381 kts 321°
2026-05-06 22:36 34.04166 -119.21757 13683 ft 379 kts 327°
2026-05-06 22:36 34.06303 -119.23576 13922 ft 378 kts 329°
2026-05-06 22:36 34.08481 -119.25327 14168 ft 380 kts 330°
2026-05-06 22:37 34.10684 -119.27097 14399 ft 380 kts 329°
2026-05-06 22:37 34.12878 -119.28895 14633 ft 382 kts 329°
2026-05-06 22:37 34.15060 -119.30721 14885 ft 384 kts 328°
2026-05-06 22:37 34.17277 -119.32605 15127 ft 386 kts 328°
2026-05-06 22:38 34.19434 -119.34456 15362 ft 386 kts 328°
2026-05-06 22:38 34.21630 -119.36350 15601 ft 389 kts 328°
2026-05-06 22:38 34.23836 -119.38258 15751 ft 389 kts 328°
2026-05-06 22:38 34.26052 -119.40177 16004 ft 390 kts 328°
2026-05-06 22:39 34.28252 -119.42082 16230 ft 391 kts 328°
2026-05-06 22:39 34.30494 -119.44022 16465 ft 392 kts 328°
2026-05-06 22:39 34.32698 -119.45931 16696 ft 392 kts 328°
2026-05-06 22:39 34.34924 -119.47858 16936 ft 393 kts 328°
2026-05-06 22:40 34.37072 -119.49954 17186 ft 400 kts 320°
2026-05-06 22:40 34.38860 -119.52579 17434 ft 409 kts 306°
2026-05-06 22:40 34.40023 -119.55737 17693 ft 418 kts 290°
2026-05-06 22:40 34.40533 -119.59224 17963 ft 426 kts 278°
2026-05-06 22:41 34.40393 -119.66457 18438 ft 434 kts 269°
2026-05-06 22:41 34.40125 -119.70072 18697 ft 437 kts 268°
2026-05-06 22:41 34.39818 -119.73731 18964 ft 439 kts 268°
2026-05-06 22:42 34.39509 -119.77391 19203 ft 440 kts 268°
2026-05-06 22:42 34.39207 -119.81109 19473 ft 443 kts 269°
2026-05-06 22:42 34.38919 -119.84850 19714 ft 445 kts 269°
2026-05-06 22:42 34.38636 -119.88641 19955 ft 445 kts 269°
2026-05-06 22:43 34.38360 -119.92406 20195 ft 445 kts 269°
2026-05-06 22:43 34.38080 -119.96247 20427 ft 448 kts 269°
2026-05-06 22:43 34.37796 -120.00171 20676 ft 449 kts 269°
2026-05-06 22:43 34.37508 -120.04133 20914 ft 452 kts 269°
2026-05-06 22:44 34.37223 -120.08044 21143 ft 453 kts 269°
2026-05-06 22:44 34.36930 -120.12046 21399 ft 454 kts 269°
2026-05-06 22:44 34.36641 -120.15992 21660 ft 456 kts 269°
2026-05-06 22:44 34.36348 -120.19954 21910 ft 459 kts 269°
2026-05-06 22:45 34.36051 -120.23958 22155 ft 459 kts 269°
2026-05-06 22:45 34.35748 -120.28015 22407 ft 461 kts 269°
2026-05-06 22:45 34.35445 -120.32053 22666 ft 463 kts 269°
2026-05-06 22:45 34.35145 -120.36039 22915 ft 465 kts 269°
2026-05-06 22:46 34.34840 -120.40029 23160 ft 467 kts 269°
2026-05-06 22:46 34.34412 -120.43968 23413 ft 472 kts 264°
2026-05-06 22:46 34.33654 -120.47863 23663 ft 478 kts 257°
2026-05-06 22:46 34.32517 -120.51666 23920 ft 482 kts 251°
2026-05-06 22:47 34.31176 -120.55368 24172 ft 486 kts 249°
2026-05-06 22:47 34.29724 -120.59043 24420 ft 488 kts 248°
2026-05-06 22:47 34.28208 -120.62746 24676 ft 489 kts 247°
2026-05-06 22:47 34.26694 -120.66404 24933 ft 491 kts 246°
2026-05-06 22:48 34.25158 -120.70124 25189 ft 493 kts 246°
2026-05-06 22:48 34.23647 -120.73812 25446 ft 496 kts 246°
2026-05-06 22:48 34.22115 -120.77584 25710 ft 497 kts 247°
2026-05-06 22:48 34.20541 -120.81482 25978 ft 499 kts 247°
2026-05-06 22:49 34.18984 -120.85361 26246 ft 498 kts 247°
2026-05-06 22:49 34.17446 -120.89201 26511 ft 498 kts 247°
2026-05-06 22:49 34.15895 -120.93078 26776 ft 497 kts 247°
2026-05-06 22:49 34.14327 -120.96999 27052 ft 497 kts 247°
2026-05-06 22:50 34.12804 -121.00808 27315 ft 496 kts 247°
2026-05-06 22:50 34.11255 -121.04676 27589 ft 495 kts 247°
2026-05-06 22:50 34.09711 -121.08531 27858 ft 494 kts 247°
2026-05-06 22:50 34.08163 -121.12389 28132 ft 494 kts 247°
2026-05-06 22:51 34.06610 -121.16258 28402 ft 493 kts 247°
2026-05-06 22:51 34.05063 -121.20105 28678 ft 492 kts 247°
2026-05-06 22:51 34.03507 -121.23972 28951 ft 492 kts 247°
2026-05-06 22:51 34.01991 -121.27732 29222 ft 493 kts 247°
2026-05-06 22:52 34.00420 -121.31627 29497 ft 495 kts 247°
2026-05-06 22:52 33.98775 -121.35703 29789 ft 497 kts 247°
2026-05-06 22:52 33.97173 -121.39664 30063 ft 498 kts 247°
2026-05-06 22:52 33.95607 -121.43529 30328 ft 496 kts 247°
2026-05-06 22:53 33.94044 -121.47381 30593 ft 495 kts 247°
2026-05-06 22:53 33.92482 -121.51231 30860 ft 494 kts 247°
2026-05-06 22:53 33.90928 -121.55053 31126 ft 493 kts 247°
2026-05-06 22:53 33.89375 -121.58871 31392 ft 493 kts 247°
2026-05-06 22:54 33.87809 -121.62714 31660 ft 492 kts 247°
2026-05-06 22:54 33.86268 -121.66492 31925 ft 492 kts 246°
2026-05-06 22:54 33.84715 -121.70298 32191 ft 492 kts 246°
2026-05-06 22:54 33.83169 -121.74080 32456 ft 491 kts 246°
2026-05-06 22:55 33.81600 -121.77916 32726 ft 490 kts 246°
2026-05-06 22:55 33.80068 -121.81656 32989 ft 489 kts 246°
2026-05-06 22:55 33.78550 -121.85358 33251 ft 488 kts 246°
2026-05-06 22:55 33.77060 -121.88989 33508 ft 487 kts 246°
2026-05-06 22:56 33.75559 -121.92644 33768 ft 486 kts 246°
2026-05-06 22:56 33.74059 -121.96289 34032 ft 484 kts 246°
2026-05-06 22:56 33.72575 -121.99891 34150 ft 485 kts 246°
2026-05-06 22:57 33.69573 -122.07177 34155 ft 489 kts 246°
2026-05-06 22:57 33.66589 -122.14397 34155 ft 483 kts 246°
2026-05-06 22:58 33.63598 -122.21614 34159 ft 484 kts 246°
2026-05-06 22:58 33.60597 -122.28846 34160 ft 483 kts 246°
2026-05-06 22:59 33.57612 -122.36022 34160 ft 484 kts 246°
2026-05-06 22:59 33.54618 -122.43204 34161 ft 484 kts 246°
2026-05-06 23:00 33.51606 -122.50415 34165 ft 483 kts 246°
2026-05-06 23:00 33.48735 -122.57708 34165 ft 481 kts 252°
2026-05-06 23:01 33.46691 -122.65255 34165 ft 478 kts 258°
2026-05-06 23:01 33.45080 -122.72951 34170 ft 477 kts 260°
2026-05-06 23:02 33.43567 -122.80670 34169 ft 477 kts 260°
2026-05-06 23:02 33.42039 -122.88367 34171 ft 477 kts 260°
2026-05-06 23:03 33.40473 -122.96078 34172 ft 477 kts 259°
2026-05-06 23:03 33.38890 -123.03741 34175 ft 478 kts 259°
2026-05-06 23:04 33.37279 -123.11465 34175 ft 478 kts 259°
2026-05-06 23:04 33.35669 -123.19133 34177 ft 477 kts 259°
2026-05-06 23:05 33.34057 -123.26780 34179 ft 477 kts 259°
2026-05-06 23:05 33.32428 -123.34486 34181 ft 477 kts 259°
2026-05-06 23:06 33.30807 -123.42127 34182 ft 477 kts 259°
2026-05-06 23:06 33.29168 -123.49831 34183 ft 478 kts 259°
2026-05-06 23:07 33.27530 -123.57501 34185 ft 477 kts 259°
2026-05-06 23:07 33.25888 -123.65165 34185 ft 477 kts 259°
2026-05-06 23:08 33.24236 -123.72858 34188 ft 478 kts 258°
2026-05-06 23:08 33.22577 -123.80555 34188 ft 479 kts 258°
2026-05-06 23:09 33.20921 -123.88213 34190 ft 479 kts 258°
2026-05-06 23:09 33.19249 -123.95911 34192 ft 479 kts 258°
2026-05-06 23:10 33.17585 -124.03552 34195 ft 478 kts 258°
2026-05-06 23:10 33.15910 -124.11221 34196 ft 477 kts 258°
2026-05-06 23:11 33.14243 -124.18833 34198 ft 477 kts 258°
2026-05-06 23:11 33.12556 -124.26509 34200 ft 478 kts 258°
2026-05-06 23:12 33.10876 -124.34135 34201 ft 479 kts 258°
2026-05-06 23:12 33.09181 -124.41800 34203 ft 479 kts 258°
2026-05-06 23:13 33.07486 -124.49438 34203 ft 479 kts 258°
2026-05-06 23:13 33.05779 -124.57104 34205 ft 478 kts 258°
2026-05-06 23:14 33.04070 -124.64741 34207 ft 477 kts 258°
2026-05-06 23:14 33.02354 -124.72386 34210 ft 478 kts 258°
2026-05-06 23:15 33.00642 -124.79990 34212 ft 478 kts 258°
2026-05-06 23:15 32.98918 -124.87624 34215 ft 478 kts 258°
2026-05-06 23:16 32.97178 -124.95320 34212 ft 484 kts 258°
2026-05-06 23:16 32.95437 -125.02990 34213 ft 483 kts 258°
2026-05-06 23:17 32.93682 -125.10686 34216 ft 482 kts 258°
2026-05-06 23:17 32.91926 -125.18371 34217 ft 482 kts 257°
2026-05-06 23:18 32.90167 -125.26051 34221 ft 482 kts 257°
2026-05-06 23:18 32.88408 -125.33696 34222 ft 482 kts 257°
2026-05-06 23:19 32.86630 -125.41402 34224 ft 482 kts 257°
2026-05-06 23:19 32.84860 -125.49056 34226 ft 482 kts 257°
2026-05-06 23:20 32.83087 -125.56697 34227 ft 482 kts 257°
2026-05-06 23:20 32.81299 -125.64374 34228 ft 481 kts 257°
2026-05-06 23:21 32.79509 -125.72038 34230 ft 482 kts 257°
2026-05-06 23:21 32.77713 -125.79705 34230 ft 482 kts 257°
2026-05-06 23:22 32.75922 -125.87331 34234 ft 482 kts 257°
2026-05-06 23:22 32.74124 -125.94968 34234 ft 482 kts 257°
2026-05-06 23:23 32.72319 -126.02605 34236 ft 482 kts 257°
2026-05-06 23:23 32.70507 -126.10246 34234 ft 481 kts 257°
2026-05-06 23:24 32.68695 -126.17867 34232 ft 482 kts 257°
2026-05-06 23:24 32.66868 -126.25530 34227 ft 481 kts 257°
2026-05-06 23:25 32.65047 -126.33146 34231 ft 481 kts 257°
2026-05-06 23:25 32.63222 -126.40758 34232 ft 482 kts 257°
2026-05-06 23:26 32.61380 -126.48412 34228 ft 482 kts 257°
2026-05-06 23:26 32.59544 -126.56020 34228 ft 482 kts 256°
2026-05-06 23:27 32.57702 -126.63630 34224 ft 482 kts 257°
2026-05-06 23:27 32.55861 -126.71220 34232 ft 482 kts 256°
2026-05-06 23:28 32.54012 -126.78818 34232 ft 482 kts 256°
2026-05-06 23:28 32.52150 -126.86450 34232 ft 482 kts 256°
2026-05-06 23:29 32.50288 -126.94057 34232 ft 482 kts 256°
2026-05-06 23:29 32.48424 -127.01649 34232 ft 482 kts 256°
2026-05-06 23:30 32.46549 -127.09264 34233 ft 481 kts 256°
2026-05-06 23:30 32.44681 -127.16824 34237 ft 481 kts 256°
2026-05-06 23:31 32.42802 -127.24410 34236 ft 480 kts 256°
2026-05-06 23:31 32.40917 -127.32008 34235 ft 481 kts 256°
2026-05-06 23:32 32.39041 -127.39540 34236 ft 481 kts 256°
2026-05-06 23:32 32.37145 -127.47134 34234 ft 481 kts 256°
2026-05-06 23:33 32.35248 -127.54709 34234 ft 481 kts 256°
2026-05-06 23:33 32.33358 -127.62234 34236 ft 480 kts 256°
2026-05-06 23:34 32.31448 -127.69821 34236 ft 480 kts 255°
2026-05-06 23:34 32.29546 -127.77354 34234 ft 480 kts 255°
2026-05-06 23:35 32.27631 -127.84912 34234 ft 480 kts 255°
2026-05-06 23:35 32.25717 -127.92448 34234 ft 480 kts 255°
2026-05-06 23:36 32.23808 -127.99947 34236 ft 480 kts 255°
2026-05-06 23:36 32.21880 -128.07501 34235 ft 481 kts 255°
2026-05-06 23:37 32.19957 -128.15015 34245 ft 479 kts 255°
2026-05-06 23:37 32.18022 -128.22554 34253 ft 480 kts 255°
2026-05-06 23:38 32.16095 -128.30039 34256 ft 479 kts 255°
2026-05-06 23:38 32.14160 -128.37537 34256 ft 479 kts 255°
2026-05-06 23:39 32.12222 -128.45026 34256 ft 479 kts 255°
2026-05-06 23:39 32.10272 -128.52541 34256 ft 479 kts 255°
2026-05-06 23:40 32.08331 -128.60001 34256 ft 478 kts 255°
2026-05-06 23:40 32.06373 -128.67502 34256 ft 478 kts 254°
2026-05-06 23:41 32.04418 -128.74977 34256 ft 478 kts 254°
2026-05-06 23:41 32.02462 -128.82434 34256 ft 478 kts 254°
2026-05-06 23:42 32.00499 -128.89894 34256 ft 477 kts 254°
2026-05-06 23:42 31.98544 -128.97310 34257 ft 477 kts 254°
2026-05-06 23:43 31.96571 -129.04774 34257 ft 476 kts 254°
2026-05-06 23:43 31.94600 -129.12207 34254 ft 476 kts 254°
2026-05-06 23:44 31.92639 -129.19583 34256 ft 475 kts 254°
2026-05-06 23:44 31.90657 -129.27017 34254 ft 475 kts 254°
2026-05-06 23:45 31.88681 -129.34416 34253 ft 474 kts 254°
2026-05-06 23:45 31.86711 -129.41772 34255 ft 473 kts 254°
2026-05-06 23:46 31.84738 -129.49120 34258 ft 473 kts 254°
2026-05-06 23:46 31.82757 -129.56477 34254 ft 473 kts 254°
2026-05-06 23:47 31.80772 -129.63827 34255 ft 472 kts 254°
2026-05-06 23:47 31.78776 -129.71204 34255 ft 472 kts 254°
2026-05-06 23:48 31.76799 -129.78490 34252 ft 472 kts 254°
2026-05-06 23:48 31.74800 -129.85837 34255 ft 470 kts 254°
2026-05-06 23:49 31.72811 -129.93132 34255 ft 470 kts 254°
2026-05-06 23:49 31.70824 -130.00400 34256 ft 470 kts 254°
2026-05-06 23:50 31.68815 -130.07729 34256 ft 470 kts 254°
2026-05-06 23:50 31.65812 -130.18646 34256 ft 469 kts 254°
2026-05-06 23:51 31.63822 -130.25864 34256 ft 468 kts 254°
2026-05-06 23:51 31.61811 -130.33134 34256 ft 468 kts 254°
2026-05-06 23:52 31.59801 -130.40387 34256 ft 468 kts 254°
2026-05-06 23:52 31.57793 -130.47613 34256 ft 467 kts 255°
2026-05-06 23:53 31.55784 -130.54826 34259 ft 466 kts 255°
2026-05-06 23:53 31.53780 -130.62003 34262 ft 465 kts 255°
2026-05-06 23:54 31.51763 -130.69206 34270 ft 464 kts 254°
2026-05-06 23:54 31.49755 -130.76364 34274 ft 465 kts 254°
2026-05-06 23:55 31.47734 -130.83553 34275 ft 464 kts 255°
2026-05-06 23:55 31.45725 -130.90675 34277 ft 463 kts 255°
2026-05-06 23:56 31.43705 -130.97821 34276 ft 461 kts 255°
2026-05-06 23:56 31.41689 -131.04935 34276 ft 460 kts 255°
2026-05-06 23:57 31.39675 -131.12024 34276 ft 460 kts 255°
2026-05-06 23:57 31.37655 -131.19127 34276 ft 461 kts 255°
2026-05-06 23:58 31.35640 -131.26192 34269 ft 460 kts 255°
2026-05-06 23:58 31.33611 -131.33284 34265 ft 460 kts 255°
2026-05-06 23:59 31.31580 -131.40367 34269 ft 459 kts 256°
2026-05-06 23:59 31.29554 -131.47421 34268 ft 460 kts 256°
2026-05-07 00:00 31.27516 -131.54492 34268 ft 458 kts 256°
2026-05-07 00:00 31.25493 -131.61497 34271 ft 459 kts 256°
2026-05-07 00:01 31.23448 -131.68565 34263 ft 458 kts 256°
2026-05-07 00:01 31.21409 -131.75597 34261 ft 457 kts 256°
2026-05-07 00:02 31.19371 -131.82613 34260 ft 458 kts 256°
2026-05-07 00:02 31.17324 -131.89638 34260 ft 459 kts 256°
2026-05-07 00:03 31.15266 -131.96681 34259 ft 458 kts 256°
2026-05-07 00:03 31.13218 -132.03677 34259 ft 458 kts 256°
2026-05-07 00:04 31.11163 -132.10681 34260 ft 457 kts 256°
2026-05-07 00:04 31.09104 -132.17680 34259 ft 456 kts 256°
2026-05-07 00:05 31.07042 -132.24677 34259 ft 456 kts 256°
2026-05-07 00:05 31.04981 -132.31651 34257 ft 456 kts 256°
2026-05-07 00:06 31.02922 -132.38602 34256 ft 457 kts 256°
2026-05-07 00:06 31.00847 -132.45595 34256 ft 457 kts 256°
2026-05-07 00:07 30.98772 -132.52570 34256 ft 457 kts 255°
2026-05-07 00:07 30.96682 -132.59578 34256 ft 456 kts 255°
2026-05-07 00:08 30.94602 -132.66538 34256 ft 456 kts 255°
2026-05-07 00:08 30.92525 -132.73471 34256 ft 457 kts 255°
2026-05-07 00:09 30.90437 -132.80425 34256 ft 456 kts 255°
2026-05-07 00:09 30.88344 -132.87384 34256 ft 456 kts 255°
2026-05-07 00:10 30.86246 -132.94350 34256 ft 457 kts 255°
2026-05-07 00:10 30.84149 -133.01294 34256 ft 457 kts 255°
2026-05-07 00:11 30.82037 -133.08267 34256 ft 455 kts 255°
2026-05-07 00:11 30.79942 -133.15169 34257 ft 456 kts 254°
2026-05-07 00:12 30.77823 -133.22136 34265 ft 456 kts 254°
2026-05-07 00:12 30.75719 -133.29034 34271 ft 454 kts 254°
2026-05-07 00:13 30.73603 -133.35960 34272 ft 455 kts 254°
2026-05-07 00:13 30.71491 -133.42860 34274 ft 455 kts 254°
2026-05-07 00:14 30.69375 -133.49753 34276 ft 455 kts 254°
2026-05-07 00:14 30.67238 -133.56702 34276 ft 455 kts 254°
2026-05-07 00:15 30.65118 -133.63582 34276 ft 454 kts 254°
2026-05-07 00:15 30.62984 -133.70491 34275 ft 454 kts 253°
2026-05-07 00:16 30.60866 -133.77339 34274 ft 454 kts 253°
2026-05-07 00:16 30.58722 -133.84255 34273 ft 455 kts 253°
2026-05-07 00:17 30.56586 -133.91124 34270 ft 454 kts 253°
2026-05-07 00:17 30.54446 -133.97994 34267 ft 454 kts 253°
2026-05-07 00:18 30.52295 -134.04884 34266 ft 454 kts 253°
2026-05-07 00:18 30.50153 -134.11732 34269 ft 454 kts 253°
2026-05-07 00:19 30.48000 -134.18597 34266 ft 454 kts 253°
2026-05-07 00:19 30.45846 -134.25455 34266 ft 454 kts 253°
2026-05-07 00:20 30.43693 -134.32292 34264 ft 454 kts 253°
2026-05-07 00:20 30.41503 -134.39238 34266 ft 453 kts 253°
2026-05-07 00:21 30.39349 -134.46053 34263 ft 453 kts 253°
2026-05-07 00:21 30.37191 -134.52863 34262 ft 452 kts 253°
2026-05-07 00:22 30.35021 -134.59697 34262 ft 453 kts 253°
2026-05-07 00:22 30.32848 -134.66530 34262 ft 453 kts 252°
2026-05-07 00:23 30.30633 -134.73477 34260 ft 453 kts 252°
2026-05-07 00:23 30.28442 -134.80336 34263 ft 453 kts 252°
2026-05-07 00:24 30.26268 -134.87126 34259 ft 453 kts 252°
2026-05-07 00:24 30.24077 -134.93957 34261 ft 453 kts 252°
2026-05-07 00:25 30.21884 -135.00781 34258 ft 452 kts 252°
2026-05-07 00:25 30.19701 -135.07558 34256 ft 452 kts 252°
2026-05-07 00:26 30.17516 -135.14331 34257 ft 452 kts 252°
2026-05-07 00:26 30.15315 -135.21137 34257 ft 452 kts 252°
2026-05-07 00:27 30.13104 -135.27957 34256 ft 453 kts 252°
2026-05-07 00:27 30.10901 -135.34741 34256 ft 453 kts 252°
2026-05-07 00:28 30.08684 -135.41554 34256 ft 453 kts 252°
2026-05-07 00:28 30.06471 -135.48344 34256 ft 453 kts 252°
2026-05-07 00:29 30.04264 -135.55098 34256 ft 451 kts 252°
2026-05-07 00:30 29.99826 -135.68642 34256 ft 452 kts 251°
2026-05-07 00:30 29.97587 -135.75455 34256 ft 453 kts 251°
2026-05-07 00:31 29.95359 -135.82216 34256 ft 453 kts 251°
2026-05-07 00:31 29.93116 -135.89012 34256 ft 452 kts 251°
2026-05-07 00:32 29.90887 -135.95752 34256 ft 452 kts 251°
2026-05-07 00:32 29.88644 -136.02519 34255 ft 452 kts 251°
2026-05-07 00:33 29.86398 -136.09282 34255 ft 451 kts 251°
2026-05-07 00:33 29.84150 -136.16040 34258 ft 451 kts 251°
2026-05-07 00:34 29.81912 -136.22754 34262 ft 452 kts 251°
2026-05-07 00:34 29.79652 -136.29524 34266 ft 452 kts 251°
2026-05-07 00:35 29.77398 -136.36258 34265 ft 451 kts 251°
2026-05-07 00:35 29.75155 -136.42950 34267 ft 451 kts 251°
2026-05-07 00:36 29.72885 -136.49707 34269 ft 451 kts 251°
2026-05-07 00:36 29.70630 -136.56406 34274 ft 451 kts 251°
2026-05-07 00:37 29.68372 -136.63098 34271 ft 450 kts 251°
2026-05-07 00:37 29.66090 -136.69850 34270 ft 451 kts 250°
2026-05-07 00:38 29.63800 -136.76614 34268 ft 451 kts 250°
2026-05-07 00:38 29.61535 -136.83293 34269 ft 450 kts 250°
2026-05-07 00:39 29.59258 -136.89990 34265 ft 450 kts 250°
2026-05-07 00:39 29.56982 -136.96672 34268 ft 450 kts 250°
2026-05-07 00:40 29.54707 -137.03340 34262 ft 450 kts 250°
2026-05-07 00:40 29.52417 -137.10036 34267 ft 451 kts 250°
2026-05-07 00:41 29.50133 -137.16705 34269 ft 450 kts 250°
2026-05-07 00:41 29.47849 -137.23358 34262 ft 449 kts 250°
2026-05-07 00:42 29.45559 -137.30019 34259 ft 450 kts 250°
2026-05-07 00:42 29.43258 -137.36697 34257 ft 449 kts 250°
2026-05-07 00:43 29.40966 -137.43339 34256 ft 449 kts 250°
2026-05-07 00:43 29.38675 -137.49963 34251 ft 449 kts 250°
2026-05-07 00:44 29.36365 -137.56633 34253 ft 449 kts 250°
2026-05-07 00:44 29.34062 -137.63266 34258 ft 449 kts 250°
2026-05-07 00:45 29.31755 -137.69900 34256 ft 449 kts 250°
2026-05-07 00:45 29.29443 -137.76537 34254 ft 449 kts 250°
2026-05-07 00:46 29.27137 -137.83141 34257 ft 449 kts 250°
2026-05-07 00:46 29.24822 -137.89761 34257 ft 449 kts 250°
2026-05-07 00:47 29.22501 -137.96387 34253 ft 449 kts 250°
2026-05-07 00:47 29.20180 -138.02998 34258 ft 448 kts 250°
2026-05-07 00:48 29.17847 -138.09633 34255 ft 448 kts 250°
2026-05-07 00:48 29.15525 -138.16225 34253 ft 449 kts 250°
2026-05-07 00:49 29.13199 -138.22813 34254 ft 448 kts 250°
2026-05-07 00:49 29.10855 -138.29439 34256 ft 449 kts 250°
2026-05-07 00:50 29.08527 -138.36011 34254 ft 448 kts 250°
2026-05-07 00:50 29.06187 -138.42603 34257 ft 448 kts 250°
2026-05-07 00:51 29.03849 -138.49178 34256 ft 449 kts 250°
2026-05-07 00:51 29.01494 -138.55788 34257 ft 448 kts 249°
2026-05-07 00:52 28.99144 -138.62376 34256 ft 449 kts 249°
2026-05-07 00:52 28.96788 -138.68965 34256 ft 450 kts 249°
2026-05-07 00:53 28.94415 -138.75586 34255 ft 448 kts 249°
2026-05-07 00:53 28.92061 -138.82144 34254 ft 448 kts 249°
2026-05-07 00:54 28.89701 -138.88711 34255 ft 449 kts 249°
2026-05-07 00:54 28.87342 -138.95262 34249 ft 448 kts 249°
2026-05-07 00:55 28.84965 -139.01851 34240 ft 448 kts 249°
2026-05-07 00:55 28.82604 -139.08386 34234 ft 448 kts 249°
2026-05-07 00:56 28.80232 -139.14935 34234 ft 448 kts 249°
2026-05-07 00:56 28.77838 -139.21536 34233 ft 450 kts 249°
2026-05-07 00:57 28.75460 -139.28076 34234 ft 448 kts 249°
2026-05-07 00:57 28.73082 -139.34608 34232 ft 448 kts 249°
2026-05-07 00:58 28.70698 -139.41142 34235 ft 448 kts 249°
2026-05-07 00:58 28.68314 -139.47664 34237 ft 447 kts 249°
2026-05-07 00:59 28.64711 -139.57471 34236 ft 447 kts 249°
2026-05-07 01:00 28.62318 -139.63972 34235 ft 448 kts 249°
2026-05-07 01:00 28.59918 -139.70487 34234 ft 448 kts 249°
2026-05-07 01:01 28.57505 -139.77020 34235 ft 447 kts 249°
2026-05-07 01:01 28.55098 -139.83527 34235 ft 448 kts 249°
2026-05-07 01:02 28.52674 -139.90070 34234 ft 448 kts 249°
2026-05-07 01:02 28.50259 -139.96576 34234 ft 447 kts 249°
2026-05-07 01:03 28.47850 -140.03052 34234 ft 447 kts 249°
2026-05-07 01:03 28.45422 -140.09573 34235 ft 447 kts 249°
2026-05-07 01:04 28.43010 -140.16036 34233 ft 447 kts 249°
2026-05-07 01:04 28.40590 -140.22511 34235 ft 446 kts 249°
2026-05-07 01:05 28.38162 -140.28995 34236 ft 446 kts 249°
2026-05-07 01:05 28.35740 -140.35452 34233 ft 447 kts 249°
2026-05-07 01:06 28.33295 -140.41962 34235 ft 447 kts 249°
2026-05-07 01:06 28.30867 -140.48412 34235 ft 446 kts 249°
2026-05-07 01:07 28.28439 -140.54851 34235 ft 446 kts 249°
2026-05-07 01:07 28.25999 -140.61313 34235 ft 446 kts 249°
2026-05-07 01:08 28.23555 -140.67773 34234 ft 445 kts 249°
2026-05-07 01:08 28.21118 -140.74206 34235 ft 445 kts 249°
2026-05-07 01:09 28.18678 -140.80633 34226 ft 446 kts 249°
2026-05-07 01:09 28.16235 -140.87061 34217 ft 446 kts 249°
2026-05-07 01:10 28.13784 -140.93495 34218 ft 446 kts 249°
2026-05-07 01:10 28.11331 -140.99925 34215 ft 446 kts 249°
2026-05-07 01:11 28.08860 -141.06392 34215 ft 446 kts 249°
2026-05-07 01:11 28.06403 -141.12810 34209 ft 445 kts 249°
2026-05-07 01:12 28.03934 -141.19246 34212 ft 445 kts 249°
2026-05-07 01:12 28.01483 -141.25629 34211 ft 444 kts 249°
2026-05-07 01:13 27.99014 -141.32047 34207 ft 443 kts 249°
2026-05-07 01:13 27.96559 -141.38417 34205 ft 444 kts 249°
2026-05-07 01:14 27.94098 -141.44795 34206 ft 443 kts 249°
2026-05-07 01:14 27.91638 -141.51158 34207 ft 443 kts 249°
2026-05-07 01:15 27.89174 -141.57520 34202 ft 442 kts 249°
2026-05-07 01:15 27.86699 -141.63898 34203 ft 442 kts 249°
2026-05-07 01:16 27.84236 -141.70239 34200 ft 442 kts 248°
2026-05-07 01:16 27.81770 -141.76579 34199 ft 442 kts 248°
2026-05-07 01:17 27.79284 -141.82958 34200 ft 443 kts 248°
2026-05-07 01:17 27.76812 -141.89287 34199 ft 443 kts 248°
2026-05-07 01:18 27.74318 -141.95664 34194 ft 442 kts 248°
2026-05-07 01:18 27.71844 -142.01979 34194 ft 441 kts 248°
2026-05-07 01:19 27.69367 -142.08293 34193 ft 441 kts 248°
2026-05-07 01:19 27.66895 -142.14586 34195 ft 441 kts 248°
2026-05-07 01:20 27.64396 -142.20931 34200 ft 442 kts 248°
2026-05-07 01:20 27.61913 -142.27226 34205 ft 440 kts 248°
2026-05-07 01:21 27.59425 -142.33530 34203 ft 441 kts 248°
2026-05-07 01:21 27.56933 -142.39831 34202 ft 442 kts 248°
2026-05-07 01:22 27.54433 -142.46141 34199 ft 441 kts 248°
2026-05-07 01:22 27.51936 -142.52434 34198 ft 442 kts 248°
2026-05-07 01:23 27.49417 -142.58771 34202 ft 441 kts 248°
2026-05-07 01:23 27.46914 -142.65059 34196 ft 440 kts 248°
2026-05-07 01:24 27.44417 -142.71324 34187 ft 441 kts 248°
2026-05-07 01:24 27.41901 -142.77623 34185 ft 440 kts 248°
2026-05-07 01:25 27.39397 -142.83884 34176 ft 440 kts 248°
2026-05-07 01:25 27.36887 -142.90150 34172 ft 441 kts 248°
2026-05-07 01:26 27.34379 -142.96403 34175 ft 440 kts 248°
2026-05-07 01:26 27.31863 -143.02664 34176 ft 440 kts 248°
2026-05-07 01:27 27.29329 -143.08960 34173 ft 441 kts 248°
2026-05-07 01:27 27.26807 -143.15216 34172 ft 440 kts 248°
2026-05-07 01:28 27.24282 -143.21468 34172 ft 440 kts 248°
2026-05-07 01:28 27.21756 -143.27718 34170 ft 441 kts 248°
2026-05-07 01:29 27.19231 -143.33951 34172 ft 440 kts 248°
2026-05-07 01:29 27.16690 -143.40218 34172 ft 439 kts 248°
2026-05-07 01:30 27.14163 -143.46439 34170 ft 439 kts 248°
2026-05-07 01:30 27.11638 -143.52644 34170 ft 438 kts 248°
2026-05-07 01:31 27.09103 -143.58867 34171 ft 441 kts 248°
2026-05-07 01:31 27.06543 -143.65138 34172 ft 441 kts 248°
2026-05-07 01:32 27.03994 -143.71373 34171 ft 441 kts 248°
2026-05-07 01:32 27.01448 -143.77593 34171 ft 441 kts 247°
2026-05-07 01:33 26.98884 -143.83847 34170 ft 441 kts 248°
2026-05-07 01:33 26.96329 -143.90068 34173 ft 440 kts 248°
2026-05-07 01:34 26.93779 -143.96268 34175 ft 440 kts 248°
2026-05-07 01:34 26.91209 -144.02510 34173 ft 439 kts 248°
2026-05-07 01:35 26.88662 -144.08681 34172 ft 439 kts 248°
2026-05-07 01:35 26.86102 -144.14880 34170 ft 440 kts 248°
2026-05-07 01:36 26.83515 -144.21133 34170 ft 440 kts 248°
2026-05-07 01:36 26.80952 -144.27321 34168 ft 439 kts 248°
2026-05-07 01:37 26.78385 -144.33505 34166 ft 440 kts 248°
2026-05-07 01:37 26.75799 -144.39728 34164 ft 440 kts 248°
2026-05-07 01:38 26.73223 -144.45915 34162 ft 440 kts 248°
2026-05-07 01:38 26.70648 -144.52094 34164 ft 440 kts 248°
2026-05-07 01:39 26.68062 -144.58287 34164 ft 439 kts 248°
2026-05-07 01:39 26.65489 -144.64441 34164 ft 439 kts 248°
2026-05-07 01:40 26.62893 -144.70639 34161 ft 440 kts 247°
2026-05-07 01:40 26.60308 -144.76802 34159 ft 440 kts 248°
2026-05-07 01:41 26.57706 -144.82997 34161 ft 440 kts 248°
2026-05-07 01:41 26.55117 -144.89149 34156 ft 440 kts 248°
2026-05-07 01:42 26.52502 -144.95357 34156 ft 440 kts 248°
2026-05-07 01:42 26.49910 -145.01503 34154 ft 440 kts 248°
2026-05-07 01:43 26.47295 -145.07693 34154 ft 440 kts 248°
2026-05-07 01:43 26.44696 -145.13837 34151 ft 440 kts 248°
2026-05-07 01:44 26.42082 -145.20004 34154 ft 440 kts 248°
2026-05-07 01:44 26.39456 -145.26190 34153 ft 440 kts 248°
2026-05-07 01:45 26.36844 -145.32340 34152 ft 440 kts 248°
2026-05-07 01:45 26.34225 -145.38493 34154 ft 441 kts 248°
2026-05-07 01:46 26.31591 -145.44672 34153 ft 440 kts 248°
2026-05-07 01:46 26.28968 -145.50815 34153 ft 440 kts 247°
2026-05-07 01:47 26.26347 -145.56946 34154 ft 441 kts 247°
2026-05-07 01:47 26.23719 -145.63086 34152 ft 441 kts 248°
2026-05-07 01:48 26.21067 -145.69273 34154 ft 441 kts 247°
2026-05-07 01:48 26.18433 -145.75407 34152 ft 439 kts 247°
2026-05-07 01:49 26.15803 -145.81523 34153 ft 440 kts 247°
2026-05-07 01:49 26.13154 -145.87676 34152 ft 440 kts 247°
2026-05-07 01:50 26.10510 -145.93808 34152 ft 441 kts 247°
2026-05-07 01:50 26.07869 -145.99924 34152 ft 442 kts 247°
2026-05-07 01:51 26.05193 -146.06111 34152 ft 442 kts 247°
2026-05-07 01:51 26.02537 -146.12244 34151 ft 442 kts 247°
2026-05-07 01:52 25.99868 -146.18398 34147 ft 441 kts 247°
2026-05-07 01:52 25.97207 -146.24536 34148 ft 441 kts 246°
2026-05-07 01:53 25.94548 -146.30664 34148 ft 441 kts 247°
2026-05-07 01:53 25.91891 -146.36777 34146 ft 440 kts 247°
2026-05-07 01:54 25.89240 -146.42870 34144 ft 440 kts 247°
2026-05-07 01:54 25.86565 -146.49010 34143 ft 441 kts 247°
2026-05-07 01:55 25.83907 -146.55104 34142 ft 441 kts 247°
2026-05-07 01:55 25.81225 -146.61240 34139 ft 440 kts 247°
2026-05-07 01:56 25.78565 -146.67319 34135 ft 441 kts 246°
2026-05-07 01:56 25.75868 -146.73471 34139 ft 443 kts 246°
2026-05-07 01:57 25.73193 -146.79565 34135 ft 441 kts 246°
2026-05-07 01:57 25.70509 -146.85669 34133 ft 440 kts 246°
2026-05-07 01:58 25.67837 -146.91742 34135 ft 440 kts 246°
2026-05-07 01:58 25.65149 -146.97842 34132 ft 440 kts 246°
2026-05-07 01:59 25.62467 -147.03917 34129 ft 440 kts 246°
2026-05-07 01:59 25.59766 -147.10030 34128 ft 441 kts 246°
2026-05-07 02:00 25.57079 -147.16100 34129 ft 440 kts 246°
2026-05-07 02:00 25.54394 -147.22157 34128 ft 440 kts 246°
2026-05-07 02:01 25.51680 -147.28275 34126 ft 442 kts 246°
2026-05-07 02:01 25.48984 -147.34338 34124 ft 441 kts 246°
2026-05-07 02:02 25.46272 -147.40430 34123 ft 441 kts 246°
2026-05-07 02:02 25.43564 -147.46507 34122 ft 441 kts 246°
2026-05-07 02:03 25.40859 -147.52568 34121 ft 440 kts 246°
2026-05-07 02:03 25.38166 -147.58592 34123 ft 439 kts 246°
2026-05-07 02:04 25.35445 -147.64676 34120 ft 440 kts 246°
2026-05-07 02:04 25.32740 -147.70711 34122 ft 441 kts 246°
2026-05-07 02:05 25.30008 -147.76799 34122 ft 441 kts 246°
2026-05-07 02:05 25.27293 -147.82844 34119 ft 442 kts 246°
2026-05-07 02:06 25.24557 -147.88924 34112 ft 440 kts 246°
2026-05-07 02:06 25.21821 -147.94995 34111 ft 441 kts 246°
2026-05-07 02:07 25.19107 -148.01012 34115 ft 440 kts 246°
2026-05-07 02:07 25.15013 -148.10071 34109 ft 441 kts 246°
2026-05-07 02:08 25.12258 -148.16156 34109 ft 441 kts 246°
2026-05-07 02:08 25.09526 -148.22183 34109 ft 441 kts 246°
2026-05-07 02:09 25.06778 -148.28238 34105 ft 441 kts 246°
2026-05-07 02:09 25.04038 -148.34267 34105 ft 441 kts 246°
2026-05-07 02:10 25.01289 -148.40308 34104 ft 442 kts 246°
2026-05-07 02:10 24.98532 -148.46356 34104 ft 442 kts 246°
2026-05-07 02:11 24.95780 -148.52385 34101 ft 440 kts 246°
2026-05-07 02:11 24.93033 -148.58395 34102 ft 441 kts 246°
2026-05-07 02:12 24.90282 -148.64407 34104 ft 439 kts 246°
2026-05-07 02:12 24.87536 -148.70404 34105 ft 441 kts 246°
2026-05-07 02:13 24.84773 -148.76428 34104 ft 440 kts 246°
2026-05-07 02:13 24.82022 -148.82417 34097 ft 440 kts 246°
2026-05-07 02:14 24.79245 -148.88454 34110 ft 441 kts 246°
2026-05-07 02:14 24.76479 -148.94458 34113 ft 440 kts 246°
2026-05-07 02:15 24.73720 -149.00439 34111 ft 440 kts 246°
2026-05-07 02:15 24.70948 -149.06439 34110 ft 440 kts 246°
2026-05-07 02:16 24.68187 -149.12410 34110 ft 438 kts 246°
2026-05-07 02:16 24.65429 -149.18365 34112 ft 439 kts 246°
2026-05-07 02:17 24.62662 -149.24336 34111 ft 439 kts 246°
2026-05-07 02:17 24.59883 -149.30325 34110 ft 438 kts 246°
2026-05-07 02:18 24.57121 -149.36266 34111 ft 438 kts 246°
2026-05-07 02:18 24.54349 -149.42221 34113 ft 438 kts 246°
2026-05-07 02:19 24.51574 -149.48177 34113 ft 438 kts 246°
2026-05-07 02:19 24.48793 -149.54140 34104 ft 438 kts 246°
2026-05-07 02:20 24.46019 -149.60075 34095 ft 440 kts 246°
2026-05-07 02:20 24.43222 -149.66055 34090 ft 440 kts 245°
2026-05-07 02:21 24.40433 -149.72008 34089 ft 440 kts 245°
2026-05-07 02:21 24.37646 -149.77951 34093 ft 440 kts 245°
2026-05-07 02:22 24.34840 -149.83926 34091 ft 440 kts 246°
2026-05-07 02:22 24.32025 -149.89911 34092 ft 441 kts 246°
2026-05-07 02:23 24.29240 -149.95825 34091 ft 440 kts 245°
2026-05-07 02:23 24.26440 -150.01765 34088 ft 439 kts 245°
2026-05-07 02:24 24.23635 -150.07710 34092 ft 440 kts 245°
2026-05-07 02:24 24.20819 -150.13669 34087 ft 439 kts 245°
2026-05-07 02:25 24.18018 -150.19588 34089 ft 440 kts 245°
2026-05-07 02:25 24.15185 -150.25566 34084 ft 441 kts 245°
2026-05-07 02:26 24.12358 -150.31526 34085 ft 440 kts 246°
2026-05-07 02:26 24.09551 -150.37437 34085 ft 440 kts 245°
2026-05-07 02:27 24.06717 -150.43394 34084 ft 439 kts 245°
2026-05-07 02:27 24.03907 -150.49293 34081 ft 441 kts 245°
2026-05-07 02:28 24.01082 -150.55220 34081 ft 441 kts 245°
2026-05-07 02:28 23.98231 -150.61192 34076 ft 441 kts 245°
2026-05-07 02:29 23.95401 -150.67110 34076 ft 439 kts 245°
2026-05-07 02:29 23.92582 -150.73001 34075 ft 439 kts 245°
2026-05-07 02:30 23.89758 -150.78894 34077 ft 440 kts 245°
2026-05-07 02:30 23.86917 -150.84816 34072 ft 441 kts 245°
2026-05-07 02:31 23.84072 -150.90741 34069 ft 442 kts 245°
2026-05-07 02:31 23.81213 -150.96684 34069 ft 441 kts 245°
2026-05-07 02:32 23.78368 -151.02593 34068 ft 441 kts 245°
2026-05-07 02:32 23.75519 -151.08502 34072 ft 441 kts 245°
2026-05-07 02:33 23.72664 -151.14418 34072 ft 441 kts 245°
2026-05-07 02:33 23.69808 -151.20326 34071 ft 441 kts 245°
2026-05-07 02:34 23.66947 -151.26237 34073 ft 441 kts 245°
2026-05-07 02:34 23.64083 -151.32149 34072 ft 441 kts 245°
2026-05-07 02:35 23.61212 -151.38066 34068 ft 441 kts 245°
2026-05-07 02:35 23.58349 -151.43962 34072 ft 441 kts 245°
2026-05-07 02:36 23.55491 -151.49840 34072 ft 442 kts 245°
2026-05-07 02:36 23.52609 -151.55757 34070 ft 441 kts 245°
2026-05-07 02:37 23.49744 -151.61635 34077 ft 441 kts 245°
2026-05-07 02:37 23.46863 -151.67539 34076 ft 442 kts 245°
2026-05-07 02:38 23.43987 -151.73425 34077 ft 441 kts 245°
2026-05-07 02:38 23.41095 -151.79336 34081 ft 441 kts 245°
2026-05-07 02:39 23.38220 -151.85207 34084 ft 441 kts 245°
2026-05-07 02:39 23.35337 -151.91083 34075 ft 440 kts 245°
2026-05-07 02:40 23.32445 -151.96973 34082 ft 442 kts 245°
2026-05-07 02:40 23.29562 -152.02837 34083 ft 440 kts 245°
2026-05-07 02:41 23.26666 -152.08717 34082 ft 441 kts 245°
2026-05-07 02:41 23.23770 -152.14597 34082 ft 441 kts 245°
2026-05-07 02:42 23.20869 -152.20477 34084 ft 441 kts 245°
2026-05-07 02:42 23.17970 -152.26346 34085 ft 441 kts 245°
2026-05-07 02:43 23.15079 -152.32191 34078 ft 441 kts 245°
2026-05-07 02:43 23.12182 -152.38043 34078 ft 441 kts 245°
2026-05-07 02:44 23.09274 -152.43909 34080 ft 441 kts 245°
2026-05-07 02:44 23.06370 -152.49760 34080 ft 441 kts 245°
2026-05-07 02:45 23.03458 -152.55623 34076 ft 441 kts 244°
2026-05-07 02:45 23.00544 -152.61472 34074 ft 442 kts 244°
2026-05-07 02:46 22.97605 -152.67331 34076 ft 442 kts 244°
2026-05-07 02:46 22.94666 -152.73180 34078 ft 442 kts 244°
2026-05-07 02:47 22.91733 -152.79010 34074 ft 441 kts 244°
2026-05-07 02:47 22.88786 -152.84865 34072 ft 441 kts 244°
2026-05-07 02:48 22.85860 -152.90675 34070 ft 442 kts 244°
2026-05-07 02:48 22.82912 -152.96524 34071 ft 442 kts 244°
2026-05-07 02:49 22.79965 -153.02361 34067 ft 442 kts 244°
2026-05-07 02:49 22.77022 -153.08183 34067 ft 442 kts 244°
2026-05-07 02:50 22.74060 -153.14035 34069 ft 441 kts 244°
2026-05-07 02:50 22.71108 -153.19861 34070 ft 441 kts 244°
2026-05-07 02:51 22.68161 -153.25673 34068 ft 443 kts 244°
2026-05-07 02:51 22.65195 -153.31516 34069 ft 443 kts 244°
2026-05-07 02:52 22.62230 -153.37349 34069 ft 442 kts 244°
2026-05-07 02:52 22.59281 -153.43149 34069 ft 443 kts 244°
2026-05-07 02:53 22.56300 -153.48997 34070 ft 443 kts 244°
2026-05-07 02:53 22.53327 -153.54825 34069 ft 444 kts 244°
2026-05-07 02:54 22.50354 -153.60646 34070 ft 443 kts 244°
2026-05-07 02:54 22.47379 -153.66469 34069 ft 443 kts 243°
2026-05-07 02:55 22.44410 -153.72272 34070 ft 443 kts 243°
2026-05-07 02:55 22.41425 -153.78096 34068 ft 442 kts 243°
2026-05-07 02:56 22.38445 -153.83946 34067 ft 443 kts 245°
2026-05-07 02:56 22.36539 -153.90135 34070 ft 437 kts 264°
2026-05-07 02:57 22.36327 -153.96695 34069 ft 437 kts 271°
2026-05-07 02:57 22.36506 -154.03227 34070 ft 436 kts 273°
2026-05-07 02:58 22.36725 -154.09770 34070 ft 437 kts 272°
2026-05-07 02:58 22.36910 -154.16307 34069 ft 436 kts 272°
2026-05-07 02:59 22.37066 -154.22878 34068 ft 436 kts 272°
2026-05-07 02:59 22.37203 -154.29382 34069 ft 436 kts 272°
2026-05-07 03:00 22.37333 -154.35922 34069 ft 437 kts 272°
2026-05-07 03:00 22.37459 -154.42511 34067 ft 437 kts 272°
2026-05-07 03:01 22.37580 -154.49036 34067 ft 438 kts 272°
2026-05-07 03:01 22.37698 -154.55597 34068 ft 438 kts 272°
2026-05-07 03:02 22.37813 -154.62126 34065 ft 437 kts 272°
2026-05-07 03:02 22.37928 -154.68707 34064 ft 437 kts 271°
2026-05-07 03:03 22.38040 -154.75275 34063 ft 438 kts 271°
2026-05-07 03:03 22.38148 -154.81856 34066 ft 438 kts 271°
2026-05-07 03:04 22.38255 -154.88402 34066 ft 437 kts 271°
2026-05-07 03:04 22.38358 -154.94977 34060 ft 437 kts 271°
2026-05-07 03:05 22.38458 -155.01552 34060 ft 439 kts 271°
2026-05-07 03:05 22.38556 -155.08139 34060 ft 440 kts 271°
2026-05-07 03:06 22.38650 -155.14685 34062 ft 438 kts 271°
2026-05-07 03:06 22.38742 -155.21294 34058 ft 440 kts 271°
2026-05-07 03:07 22.38831 -155.27902 34062 ft 440 kts 271°
2026-05-07 03:07 22.38918 -155.34459 34064 ft 439 kts 271°
2026-05-07 03:08 22.39003 -155.41071 34066 ft 441 kts 271°
2026-05-07 03:08 22.39082 -155.47582 33615 ft 433 kts 271°
2026-05-07 03:09 22.39120 -155.50833 33114 ft 428 kts 271°
2026-05-07 03:09 22.39156 -155.54024 32642 ft 424 kts 271°
2026-05-07 03:09 22.39192 -155.57214 32180 ft 426 kts 272°
2026-05-07 03:09 22.39229 -155.60388 31725 ft 430 kts 272°
2026-05-07 03:10 22.39266 -155.63614 31261 ft 432 kts 272°
2026-05-07 03:10 22.39302 -155.66888 30790 ft 434 kts 272°
2026-05-07 03:10 22.39337 -155.70132 30325 ft 436 kts 272°
2026-05-07 03:10 22.39373 -155.73424 29862 ft 438 kts 272°
2026-05-07 03:11 22.39408 -155.76685 29404 ft 441 kts 272°
2026-05-07 03:11 22.39442 -155.80013 28931 ft 443 kts 272°
2026-05-07 03:11 22.39476 -155.83377 28459 ft 445 kts 272°
2026-05-07 03:11 22.39510 -155.86705 27991 ft 446 kts 272°
2026-05-07 03:12 22.39543 -155.90050 27525 ft 447 kts 272°
2026-05-07 03:12 22.39575 -155.93404 27060 ft 448 kts 272°
2026-05-07 03:12 22.39607 -155.96761 26602 ft 450 kts 272°
2026-05-07 03:12 22.39638 -156.00168 26132 ft 451 kts 272°
2026-05-07 03:13 22.39668 -156.03538 25673 ft 453 kts 271°
2026-05-07 03:13 22.39698 -156.06957 25211 ft 454 kts 271°
2026-05-07 03:13 22.39727 -156.10365 24748 ft 455 kts 271°
2026-05-07 03:13 22.39755 -156.13766 24288 ft 451 kts 271°
2026-05-07 03:14 22.39757 -156.17178 23825 ft 448 kts 269°
2026-05-07 03:14 22.39518 -156.20528 23371 ft 446 kts 263°
2026-05-07 03:14 22.37615 -156.26935 22462 ft 445 kts 244°
2026-05-07 03:15 22.35983 -156.29781 22031 ft 443 kts 236°
2026-05-07 03:15 22.34075 -156.32452 21592 ft 440 kts 232°
2026-05-07 03:15 22.32094 -156.34964 21159 ft 436 kts 230°
2026-05-07 03:15 22.30074 -156.37437 20722 ft 433 kts 230°
2026-05-07 03:16 22.28061 -156.39894 20284 ft 430 kts 230°
2026-05-07 03:16 22.26104 -156.42307 19855 ft 426 kts 230°
2026-05-07 03:16 22.24156 -156.44743 19418 ft 422 kts 230°
2026-05-07 03:16 22.22252 -156.47157 18986 ft 419 kts 231°
2026-05-07 03:17 22.20382 -156.49550 18558 ft 415 kts 231°
2026-05-07 03:17 22.18527 -156.51936 18124 ft 413 kts 231°
2026-05-07 03:17 22.16684 -156.54320 17693 ft 409 kts 231°
2026-05-07 03:17 22.14871 -156.56670 17267 ft 406 kts 231°
2026-05-07 03:18 22.13077 -156.58998 16845 ft 403 kts 231°
2026-05-07 03:18 22.11295 -156.61311 16425 ft 401 kts 231°
2026-05-07 03:18 22.09519 -156.63617 15999 ft 398 kts 231°
2026-05-07 03:18 22.07744 -156.65918 15568 ft 394 kts 231°
2026-05-07 03:19 22.05998 -156.68179 15147 ft 391 kts 231°
2026-05-07 03:19 22.04284 -156.70401 14727 ft 388 kts 231°
2026-05-07 03:19 22.02560 -156.72632 14301 ft 384 kts 231°
2026-05-07 03:19 22.00862 -156.74829 13872 ft 381 kts 231°
2026-05-07 03:20 21.99153 -156.77039 13443 ft 378 kts 231°
2026-05-07 03:20 21.97479 -156.79204 13025 ft 376 kts 231°
2026-05-07 03:20 21.95813 -156.81357 12604 ft 374 kts 231°
2026-05-07 03:20 21.94154 -156.83498 12178 ft 372 kts 231°
2026-05-07 03:21 21.92505 -156.85629 11753 ft 371 kts 231°
2026-05-07 03:21 21.90840 -156.87778 11321 ft 369 kts 231°
2026-05-07 03:21 21.89206 -156.89885 10891 ft 367 kts 231°
2026-05-07 03:21 21.87573 -156.91992 10460 ft 364 kts 231°
2026-05-07 03:22 21.85964 -156.94064 10067 ft 361 kts 231°
2026-05-07 03:22 21.84358 -156.96135 9990 ft 358 kts 231°
2026-05-07 03:22 21.82759 -156.98195 9985 ft 362 kts 231°
2026-05-07 03:22 21.81128 -157.00299 9987 ft 362 kts 231°
2026-05-07 03:23 21.79518 -157.02376 9986 ft 362 kts 231°
2026-05-07 03:23 21.77909 -157.04451 9986 ft 361 kts 231°
2026-05-07 03:23 21.76295 -157.06531 9991 ft 363 kts 231°
2026-05-07 03:23 21.74686 -157.08604 9986 ft 355 kts 231°
2026-05-07 03:24 21.73149 -157.10582 9987 ft 342 kts 231°
2026-05-07 03:24 21.71622 -157.12546 9993 ft 342 kts 231°
2026-05-07 03:24 21.70082 -157.14528 9993 ft 345 kts 231°
2026-05-07 03:24 21.68549 -157.16502 9990 ft 344 kts 231°
2026-05-07 03:25 21.67000 -157.18494 9993 ft 345 kts 231°
2026-05-07 03:25 21.65462 -157.20470 9997 ft 346 kts 231°
2026-05-07 03:25 21.63919 -157.22452 9990 ft 345 kts 231°
2026-05-07 03:25 21.62365 -157.24448 9991 ft 346 kts 231°
2026-05-07 03:26 21.60831 -157.26417 9999 ft 345 kts 231°
2026-05-07 03:26 21.59281 -157.28406 9993 ft 345 kts 231°
2026-05-07 03:26 21.57738 -157.30385 10001 ft 344 kts 231°
2026-05-07 03:26 21.56207 -157.32349 9990 ft 345 kts 231°
2026-05-07 03:27 21.54671 -157.34317 9993 ft 344 kts 231°
2026-05-07 03:27 21.53121 -157.36304 9990 ft 345 kts 231°
2026-05-07 03:27 21.51585 -157.38271 9995 ft 345 kts 231°
2026-05-07 03:27 21.50039 -157.40250 9998 ft 346 kts 231°
2026-05-07 03:28 21.48494 -157.42227 9997 ft 345 kts 231°
2026-05-07 03:28 21.46956 -157.44196 9988 ft 335 kts 231°
2026-05-07 03:28 21.45491 -157.46068 9996 ft 320 kts 231°
2026-05-07 03:28 21.44068 -157.47888 9994 ft 307 kts 231°
2026-05-07 03:29 21.42738 -157.49589 9996 ft 291 kts 231°
2026-05-07 03:29 21.41472 -157.51209 9993 ft 275 kts 231°
2026-05-07 03:29 21.40261 -157.52757 9991 ft 260 kts 231°
2026-05-07 03:29 21.39139 -157.54193 9995 ft 245 kts 231°
2026-05-07 03:30 21.38065 -157.55568 10007 ft 239 kts 231°
2026-05-07 03:30 21.36977 -157.56959 10002 ft 239 kts 231°
2026-05-07 03:30 21.35899 -157.58337 9988 ft 240 kts 231°
2026-05-07 03:30 21.34823 -157.59715 9999 ft 241 kts 231°
2026-05-07 03:31 21.33749 -157.61090 10005 ft 241 kts 231°
2026-05-07 03:31 21.32671 -157.62468 10004 ft 240 kts 231°
2026-05-07 03:31 21.31594 -157.63843 10001 ft 240 kts 231°
2026-05-07 03:31 21.30509 -157.65225 10004 ft 242 kts 230°
2026-05-07 03:32 21.29432 -157.66595 9908 ft 237 kts 230°
2026-05-07 03:32 21.28371 -157.67946 9514 ft 238 kts 230°
2026-05-07 03:32 21.27309 -157.69310 9081 ft 238 kts 232°
2026-05-07 03:32 21.26460 -157.70824 8659 ft 238 kts 251°
2026-05-07 03:33 21.26174 -157.72551 8317 ft 234 kts 266°
2026-05-07 03:33 21.26093 -157.74255 7977 ft 231 kts 267°
2026-05-07 03:33 21.25990 -157.75983 7607 ft 230 kts 266°
2026-05-07 03:33 21.25853 -157.77678 7229 ft 229 kts 265°
2026-05-07 03:34 21.25699 -157.79372 6847 ft 228 kts 265°
2026-05-07 03:34 21.25542 -157.81050 6481 ft 227 kts 265°
2026-05-07 03:34 21.25384 -157.82745 6119 ft 226 kts 265°
2026-05-07 03:34 21.25232 -157.84390 6002 ft 219 kts 265°
2026-05-07 03:35 21.25080 -157.86026 6013 ft 225 kts 265°
2026-05-07 03:35 21.24925 -157.87700 6012 ft 227 kts 265°
2026-05-07 03:35 21.24769 -157.89380 6007 ft 221 kts 265°
2026-05-07 03:35 21.24619 -157.90982 6009 ft 213 kts 265°
2026-05-07 03:36 21.24471 -157.92575 6012 ft 214 kts 265°
2026-05-07 03:36 21.24324 -157.94156 6011 ft 214 kts 265°
2026-05-07 03:36 21.24176 -157.95746 6011 ft 215 kts 265°
2026-05-07 03:36 21.24027 -157.97340 6010 ft 215 kts 265°
2026-05-07 03:37 21.23879 -157.98936 6012 ft 215 kts 265°
2026-05-07 03:37 21.23795 -158.00531 5988 ft 212 kts 269°
2026-05-07 03:37 21.23796 -158.02086 5724 ft 209 kts 271°
2026-05-07 03:37 21.23818 -158.03642 5324 ft 211 kts 271°
2026-05-07 03:38 21.23830 -158.05223 4929 ft 212 kts 271°
2026-05-07 03:38 21.23834 -158.06793 4525 ft 214 kts 270°
2026-05-07 03:38 21.23835 -158.08392 4169 ft 213 kts 271°
2026-05-07 03:38 21.23835 -158.09958 3998 ft 209 kts 271°
2026-05-07 03:39 21.23835 -158.11522 4009 ft 205 kts 271°
2026-05-07 03:39 21.23834 -158.12996 4010 ft 191 kts 271°
2026-05-07 03:39 21.23834 -158.14414 4014 ft 192 kts 271°
2026-05-07 03:39 21.23833 -158.15855 4012 ft 192 kts 271°
2026-05-07 03:40 21.23832 -158.17282 4012 ft 192 kts 271°
2026-05-07 03:40 21.23852 -158.18701 4011 ft 192 kts 275°
2026-05-07 03:40 21.24202 -158.20077 4012 ft 192 kts 301°
2026-05-07 03:40 21.25090 -158.21130 4015 ft 191 kts 323°
2026-05-07 03:41 21.26230 -158.21831 4025 ft 183 kts 339°
2026-05-07 03:41 21.27489 -158.22044 4011 ft 181 kts
2026-05-07 03:41 21.28750 -158.22002 4008 ft 181 kts
2026-05-07 03:41 21.30011 -158.21976 4012 ft 181 kts
2026-05-07 03:42 21.31253 -158.21706 4008 ft 182 kts 26°
2026-05-07 03:42 21.32138 -158.20749 4016 ft 186 kts 65°
2026-05-07 03:42 21.32400 -158.19394 4019 ft 187 kts 85°
2026-05-07 03:42 21.32466 -158.18013 4016 ft 185 kts 87°
2026-05-07 03:43 21.32500 -158.16618 3996 ft 182 kts 88°
2026-05-07 03:43 21.32508 -158.15332 3851 ft 166 kts 89°
2026-05-07 03:43 21.32509 -158.14079 3540 ft 159 kts 89°
2026-05-07 03:43 21.32512 -158.12921 3344 ft 154 kts 89°
2026-05-07 03:44 21.32515 -158.11778 3185 ft 156 kts 88°
2026-05-07 03:44 21.32516 -158.10611 2934 ft 153 kts 89°
2026-05-07 03:44 21.32515 -158.09470 2752 ft 153 kts 88°
2026-05-07 03:44 21.32517 -158.08308 2535 ft 153 kts 88°
2026-05-07 03:45 21.32520 -158.07155 2329 ft 152 kts 88°
2026-05-07 03:45 21.32521 -158.06003 2123 ft 152 kts 88°
2026-05-07 03:45 21.32521 -158.04842 1915 ft 151 kts 88°
2026-05-07 03:45 21.32521 -158.03691 1714 ft 150 kts 88°
2026-05-07 03:46 21.32522 -158.02548 1513 ft 149 kts 88°
2026-05-07 03:46 21.32523 -158.01396 1308 ft 150 kts 88°
2026-05-07 03:46 21.32523 -158.00264 1108 ft 150 kts 88°
2026-05-07 03:46 21.32523 -157.99118 907 ft 150 kts 88°
2026-05-07 03:47 21.32523 -157.97977 710 ft 150 kts 88°
2026-05-07 03:47 21.32514 -157.96826 521 ft 148 kts 89°
2026-05-07 03:47 21.32494 -157.95702 291 ft 148 kts 88°
2026-05-07 03:47 21.32511 -157.94589 116 ft 145 kts 86°
2026-05-07 03:48 21.32522 -157.93538 29 ft 133 kts 88°
2026-05-07 03:48 21.32527 -157.92744 33 ft 79 kts 88°
2026-05-07 03:48 21.32514 -157.92194 31 ft 55 kts 90°
2026-05-07 03:48 21.32546 -157.91975 25 ft 16 kts 53°
2026-05-07 03:49 21.32591 -157.91940 26 ft 5 kts 21°
2026-05-07 03:49 21.32616 -157.91931 27 ft 1 kts 18°
2026-05-07 03:49 21.32621 -157.91928 27 ft 2 kts 19°
2026-05-07 03:49 21.32665 -157.91907 28 ft 7 kts 21°
2026-05-07 03:50 21.32717 -157.91911 30 ft 8 kts 335°
2026-05-07 03:50 21.32769 -157.91978 34 ft 12 kts 289°
2026-05-07 03:50 21.32774 -157.92065 34 ft 10 kts 270°
2026-05-07 03:50 21.32796 -157.92156 36 ft 15 kts 323°
2026-05-07 03:51 21.32896 -157.92163 38 ft 13 kts
2026-05-07 03:51 21.32984 -157.92149 40 ft 11 kts 12°
2026-05-07 03:51 21.33018 -157.92114 41 ft 6 kts 95°
2026-05-07 03:51 21.33012 -157.92081 40 ft 3 kts 99°
2026-05-07 03:52 21.33011 -157.92072 40 ft 0 kts 98°